Date,TemperatureHighF,TemperatureAvgF,TemperatureLowF,DewpointHighF,DewpointAvgF,DewpointLowF,HumidityHigh,HumidityAvg,HumidityLow,PressureMaxIn,PressureMinIn,WindSpeedMaxMPH,WindSpeedAvgMPH,GustSpeedMaxMPH,PrecipitationSumIn
2013-8-1,74.2,61.3,55.7,53.0,52.5,51.0,88,75,45,30.07,29.95,13,5,19,0.00
2013-8-2,82.0,64.2,54.6,55.0,52.9,51.0,92,71,36,29.98,29.87,14,5,19,0.00
2013-8-3,81.1,64.6,54.6,56.0,53.8,52.0,91,71,40,29.97,29.88,11,5,16,0.00
2013-8-4,77.9,61.2,53.6,56.0,53.5,51.0,94,78,45,30.00,29.92,14,5,19,0.00
2013-8-5,77.7,61.3,54.2,56.0,53.5,51.0,94,78,46,30.02,29.93,16,5,19,0.00
2013-8-6,72.6,60.5,53.9,55.0,53.7,52.0,93,80,54,30.04,29.97,16,5,17,0.00
2013-8-7,72.3,62.3,56.4,56.0,54.7,53.0,93,77,55,30.10,30.03,10,4,16,0.00
2013-8-8,75.5,62.6,55.8,58.0,55.4,53.0,93,79,53,30.03,29.93,10,4,17,0.00
2013-8-9,73.6,61.2,54.8,57.0,54.6,52.0,92,80,56,29.99,29.91,10,5,15,0.00
2013-8-10,77.1,63.3,56.0,58.0,56.0,53.0,92,79,51,30.05,29.98,12,4,18,0.00
2013-8-11,80.5,63.7,55.7,58.0,56.0,53.0,96,79,44,30.02,29.92,15,5,17,0.00
2013-8-12,84.6,67.3,55.8,57.0,54.0,51.0,93,67,34,29.98,29.92,11,4,15,0.00
2013-8-13,93.1,70.0,53.4,56.0,53.0,50.0,91,61,25,29.98,29.88,10,4,17,0.00
2013-8-14,83.6,66.3,55.2,60.0,55.7,52.0,92,72,36,29.97,29.89,13,5,17,0.00
2013-8-15,85.7,70.0,59.9,65.0,61.4,57.0,93,76,47,29.95,29.89,14,4,17,0.00
2013-8-16,87.6,71.4,59.8,64.0,59.8,54.0,96,72,34,29.97,29.90,14,5,16,0.00
2013-8-17,77.5,65.5,58.8,60.0,57.4,55.0,91,77,52,29.98,29.86,12,5,18,0.00
2013-8-18,97.6,75.4,56.9,64.0,58.3,52.0,93,61,22,29.88,29.74,9,2,11,0.00
2013-8-19,98.6,79.0,66.1,62.0,57.5,50.0,75,51,28,29.86,29.76,12,4,16,0.00
2013-8-20,87.5,70.1,58.8,60.0,56.4,52.0,91,65,35,29.86,29.77,14,4,20,0.00
2013-8-21,80.6,65.1,56.7,57.0,55.0,53.0,91,72,43,29.92,29.82,14,4,17,0.00
2013-8-22,76.0,63.8,57.3,56.0,54.7,53.0,89,74,48,29.96,29.87,17,5,18,0.00
2013-8-23,76.6,63.2,57.8,57.0,55.1,54.0,88,76,49,29.93,29.80,15,5,18,0.00
2013-8-24,79.7,65.8,57.2,59.0,56.8,54.0,90,75,49,29.89,29.84,12,4,19,0.00
2013-8-25,83.2,67.9,61.1,63.0,60.4,57.0,94,79,49,29.93,29.87,11,4,17,0.00
2013-8-26,80.8,67.0,59.4,59.0,57.2,56.0,90,73,47,30.00,29.88,10,4,17,0.00
2013-8-27,84.2,67.1,55.5,59.0,56.5,53.0,91,72,37,29.90,29.79,14,4,18,0.00
2013-8-28,84.7,68.7,59.0,63.0,59.8,57.0,94,76,43,29.93,29.85,11,4,15,0.00
2013-8-29,85.1,69.1,59.6,64.0,60.9,58.0,95,78,46,30.04,29.93,12,4,14,0.00
2013-8-30,92.9,73.7,60.7,63.0,60.6,55.0,95,69,29,30.03,29.89,12,4,17,0.00
2013-8-31,83.4,68.9,58.8,59.0,56.6,51.0,92,68,33,29.95,29.87,12,4,17,0.00